| time (UTC) | temp F | wind direction | speed MPH | gust MPH | rain 1hr in | rain 24hr in | rain mn in | humidity % | barometer mb |
| 20260904010055 | 86 | 0 | 0.0 | 0.0 | 0.00 | 0.00 | 0.00 | 73 | 1017.0 |
| 20260904004606 | 87 | 0 | 0.0 | 0.0 | 0.00 | 0.00 | 0.00 | 71 | 1016.8 |
| 20260904003057 | 87 | 0 | 0.0 | 1.0 | 0.00 | 0.00 | 0.00 | 69 | 1016.8 |
| 20260904001558 | 88 | 0 | 0.0 | 0.0 | 0.00 | 0.00 | 0.00 | 67 | 1016.6 |
| 20260904000109 | 90 | 0 | 0.0 | 2.0 | 0.00 | 0.00 | 0.00 | 67 | 1016.5 |
| 20260903234551 | 91 | 0 | 0.0 | 0.0 | 0.00 | 0.00 | 0.00 | 60 | 1016.5 |
| 20260903233103 | 92 | 0 | 0.0 | 0.0 | 0.00 | 0.00 | 0.00 | 58 | 1016.3 |
| 20260903231558 | 92 | 0 | 0.0 | 2.0 | 0.00 | 0.00 | 0.00 | 58 | 1016.2 |
| 20260903230100 | 92 | 0 | 0.0 | 1.0 | 0.00 | 0.00 | 0.00 | 58 | 1016.2 |
| 20260903224613 | 91 | 109 | 2.0 | 7.0 | 0.00 | 0.00 | 0.00 | 61 | 1016.4 |
| 20260903223108 | 90 | 0 | 0.0 | 0.0 | 0.00 | 0.00 | 0.00 | 63 | 1016.2 |
| 20260903221603 | 88 | 0 | 1.0 | 5.0 | 0.00 | 0.00 | 0.00 | 64 | 1016.2 |
| 20260903220101 | 88 | 0 | 4.0 | 9.0 | 0.00 | 0.00 | 0.00 | 61 | 1016.3 |
| 20260903214609 | 93 | 350 | 5.0 | 14.0 | 0.00 | 0.00 | 0.00 | 53 | 1016.4 |
| 20260903213100 | 98 | 117 | 2.0 | 6.0 | 0.00 | 0.00 | 0.00 | 48 | 1016.2 |
| 20260903211605 | 99 | 235 | 1.0 | 5.0 | 0.00 | 0.00 | 0.00 | 47 | 1016.3 |
| 20260903210127 | 99 | 277 | 0.0 | 4.0 | 0.00 | 0.00 | 0.00 | 47 | 1016.5 |
| 20260903204552 | 98 | 186 | 1.0 | 9.0 | 0.00 | 0.00 | 0.00 | 49 | 1016.5 |
| 20260903203107 | 98 | 148 | 3.0 | 7.0 | 0.00 | 0.00 | 0.00 | 47 | 1016.7 |
| 20260903201601 | 97 | 131 | 1.0 | 6.0 | 0.00 | 0.00 | 0.00 | 49 | 1016.7 |
| 20260903200058 | 98 | 106 | 1.0 | 4.0 | 0.00 | 0.00 | 0.00 | 50 | 1016.9 |
| 20260903194556 | 97 | 285 | 2.0 | 6.0 | 0.00 | 0.00 | 0.00 | 51 | 1017.1 |
| 20260903193103 | 96 | 104 | 2.0 | 8.0 | 0.00 | 0.00 | 0.00 | 51 | 1017.2 |
| 20260903191556 | 96 | 131 | 2.0 | 7.0 | 0.00 | 0.00 | 0.00 | 49 | 1017.4 |
| 20260903190100 | 98 | 0 | 1.0 | 6.0 | 0.00 | 0.00 | 0.00 | 50 | 1017.6 |
| 20260903184555 | 97 | 0 | 0.0 | 4.0 | 0.00 | 0.00 | 0.00 | 49 | 1017.7 |
| 20260903183053 | 96 | 0 | 0.0 | 2.0 | 0.00 | 0.00 | 0.00 | 53 | 1017.9 |
| 20260903181558 | 96 | 0 | 0.0 | 6.0 | 0.00 | 0.00 | 0.00 | 52 | 1018.2 |
| 20260903180059 | 95 | 192 | 1.0 | 4.0 | 0.00 | 0.00 | 0.00 | 53 | 1018.2 |
| 20260903174555 | 95 | 279 | 1.0 | 4.0 | 0.00 | 0.00 | 0.00 | 54 | 1018.5 |
| 20260903173059 | 94 | 0 | 1.0 | 6.0 | 0.00 | 0.00 | 0.00 | 54 | 1018.7 |
| 20260903171607 | 94 | 0 | 0.0 | 2.0 | 0.00 | 0.00 | 0.00 | 55 | 1019.1 |
| 20260903170058 | 95 | 0 | 0.0 | 4.0 | 0.00 | 0.00 | 0.00 | 54 | 1019.3 |
| 20260903164620 | 95 | 57 | 0.0 | 4.0 | 0.00 | 0.00 | 0.00 | 56 | 1019.3 |
| 20260903163101 | 93 | 0 | 0.0 | 4.0 | 0.00 | 0.00 | 0.00 | 62 | 1019.5 |
| 20260903161557 | 92 | 0 | 2.0 | 6.0 | 0.00 | 0.00 | 0.00 | 62 | 1019.5 |
| 20260903160129 | 91 | 0 | 1.0 | 6.0 | 0.00 | 0.00 | 0.00 | 65 | 1019.6 |
| 20260903154609 | 91 | 140 | 1.0 | 5.0 | 0.00 | 0.00 | 0.00 | 67 | 1019.7 |
| 20260903153057 | 90 | 0 | 0.0 | 2.0 | 0.00 | 0.00 | 0.00 | 69 | 1019.7 |
| 20260903151559 | 89 | 0 | 0.0 | 5.0 | 0.00 | 0.00 | 0.00 | 70 | 1019.6 |
| 20260903150053 | 88 | 0 | 0.0 | 2.0 | 0.00 | 0.00 | 0.00 | 73 | 1019.7 |
| 20260903144604 | 87 | 0 | 0.0 | 3.0 | 0.00 | 0.00 | 0.00 | 73 | 1019.6 |
| 20260903143109 | 85 | 0 | 0.0 | 4.0 | 0.00 | 0.00 | 0.00 | 77 | 1019.5 |
| 20260903141605 | 83 | 0 | 0.0 | 0.0 | 0.00 | 0.00 | 0.00 | 79 | 1019.4 |
| 20260903140056 | 81 | 0 | 0.0 | 0.0 | 0.00 | 0.00 | 0.00 | 82 | 1019.5 |
| 20260903134600 | 79 | 0 | 0.0 | 0.0 | 0.00 | 0.00 | 0.00 | 87 | 1019.5 |
| 20260903133100 | 78 | 0 | 0.0 | 0.0 | 0.00 | 0.00 | 0.00 | 88 | 1019.6 |
| 20260903131601 | 78 | 0 | 0.0 | 0.0 | 0.00 | 0.00 | 0.00 | 89 | 1019.6 |
| 20260903130100 | 76 | 170 | 1.0 | 5.0 | 0.00 | 0.00 | 0.00 | 90 | 1019.6 |
| 20260903124605 | 75 | 0 | 0.0 | 2.0 | 0.00 | 0.00 | 0.00 | 92 | 1019.6 |
| 20260903123055 | 73 | 0 | 0.0 | 0.0 | 0.00 | 0.00 | 0.00 | 95 | 1019.6 |
| 20260903121555 | 73 | 0 | 0.0 | 0.0 | 0.00 | 0.00 | 0.00 | 96 | 1019.6 |
| 20260903120106 | 72 | 0 | 0.0 | 0.0 | 0.00 | 0.00 | 0.00 | 96 | 1019.3 |
| 20260903114602 | 72 | 0 | 0.0 | 0.0 | 0.00 | 0.00 | 0.00 | 96 | 1019.2 |
| 20260903113058 | 72 | 0 | 0.0 | 0.0 | 0.00 | 0.00 | 0.00 | 95 | 1019.2 |
| 20260903111558 | 72 | 0 | 0.0 | 0.0 | 0.00 | 0.00 | 0.00 | 95 | 1019.1 |
| 20260903110056 | 72 | 0 | 0.0 | 0.0 | 0.00 | 0.00 | 0.00 | 95 | 1019.0 |
| 20260903104605 | 72 | 0 | 0.0 | 0.0 | 0.00 | 0.00 | 0.00 | 95 | 1018.7 |
| 20260903103103 | 73 | 0 | 0.0 | 0.0 | 0.00 | 0.00 | 0.00 | 94 | 1018.6 |
| 20260903101608 | 73 | 0 | 0.0 | 0.0 | 0.00 | 0.00 | 0.00 | 94 | 1018.5 |
| 20260903100056 | 73 | 0 | 0.0 | 0.0 | 0.00 | 0.00 | 0.00 | 95 | 1018.6 |
| 20260903094605 | 73 | 0 | 0.0 | 0.0 | 0.00 | 0.00 | 0.00 | 95 | 1018.6 |
| 20260903093110 | 73 | 0 | 0.0 | 0.0 | 0.00 | 0.00 | 0.00 | 94 | 1018.6 |
| 20260903091557 | 74 | 0 | 0.0 | 0.0 | 0.00 | 0.00 | 0.00 | 94 | 1018.8 |
| 20260903090059 | 74 | 0 | 0.0 | 1.0 | 0.00 | 0.00 | 0.00 | 94 | 1018.6 |
| 20260903084601 | 74 | 0 | 0.0 | 0.0 | 0.00 | 0.00 | 0.00 | 94 | 1018.6 |
| 20260903083053 | 74 | 0 | 0.0 | 0.0 | 0.00 | 0.00 | 0.00 | 94 | 1018.6 |
| 20260903081557 | 74 | 0 | 0.0 | 0.0 | 0.00 | 0.00 | 0.00 | 94 | 1018.6 |
| 20260903080049 | 75 | 0 | 0.0 | 0.0 | 0.00 | 0.00 | 0.00 | 94 | 1018.6 |
| 20260903074556 | 75 | 0 | 0.0 | 0.0 | 0.00 | 0.00 | 0.00 | 93 | 1018.5 |
| 20260903073056 | 74 | 0 | 0.0 | 1.0 | 0.00 | 0.00 | 0.00 | 95 | 1018.5 |
| 20260903071553 | 74 | 0 | 0.0 | 0.0 | 0.00 | 0.00 | 0.00 | 94 | 1018.5 |
| 20260903070109 | 74 | 0 | 0.0 | 0.0 | 0.00 | 0.00 | 0.00 | 94 | 1018.4 |
| 20260903064557 | 75 | 0 | 0.0 | 0.0 | 0.00 | 0.00 | 0.00 | 93 | 1018.4 |
| 20260903063124 | 75 | 0 | 0.0 | 0.0 | 0.00 | 0.00 | 0.00 | 93 | 1018.5 |
| 20260903061554 | 76 | 0 | 0.0 | 0.0 | 0.00 | 0.00 | 0.00 | 93 | 1018.5 |
| 20260903060117 | 76 | 0 | 0.0 | 0.0 | 0.00 | 0.00 | 0.00 | 92 | 1018.4 |
| 20260903054600 | 76 | 0 | 0.0 | 0.0 | 0.00 | 0.00 | 0.00 | 92 | 1018.5 |
| 20260903053056 | 77 | 0 | 0.0 | 0.0 | 0.00 | 0.00 | 0.00 | 90 | 1018.4 |
| 20260903051559 | 77 | 0 | 0.0 | 0.0 | 0.00 | 0.00 | 0.00 | 89 | 1018.5 |
| 20260903050129 | 78 | 0 | 0.0 | 0.0 | 0.00 | 0.00 | 0.00 | 87 | 1018.5 |
| 20260903044559 | 79 | 0 | 0.0 | 0.0 | 0.00 | 0.00 | 0.00 | 86 | 1018.6 |
| 20260903043058 | 79 | 0 | 0.0 | 0.0 | 0.00 | 0.00 | 0.00 | 86 | 1018.4 |
| 20260903041559 | 79 | 0 | 0.0 | 0.0 | 0.00 | 0.00 | 0.00 | 86 | 1018.6 |
| 20260903040101 | 80 | 0 | 0.0 | 0.0 | 0.00 | 0.00 | 0.00 | 85 | 1018.6 |
| 20260903034600 | 80 | 0 | 0.0 | 0.0 | 0.00 | 0.00 | 0.00 | 83 | 1018.6 |
| 20260903033057 | 81 | 0 | 0.0 | 2.0 | 0.00 | 0.00 | 0.00 | 82 | 1018.6 |
| 20260903031559 | 82 | 0 | 1.0 | 2.0 | 0.00 | 0.00 | 0.00 | 81 | 1018.6 |
| 20260903030058 | 81 | 0 | 0.0 | 0.0 | 0.00 | 0.00 | 0.00 | 82 | 1018.7 |
| 20260903024602 | 81 | 0 | 0.0 | 0.0 | 0.00 | 0.00 | 0.00 | 82 | 1018.6 |
| 20260903023058 | 81 | 0 | 0.0 | 0.0 | 0.00 | 0.00 | 0.00 | 82 | 1018.6 |
| 20260903021559 | 82 | 0 | 0.0 | 0.0 | 0.00 | 0.00 | 0.00 | 80 | 1018.9 |
| 20260903020054 | 83 | 0 | 0.0 | 0.0 | 0.00 | 0.00 | 0.00 | 79 | 1018.6 |
| 20260903014555 | 84 | 0 | 0.0 | 0.0 | 0.00 | 0.00 | 0.00 | 77 | 1018.5 |
| 20260903013057 | 84 | 0 | 0.0 | 0.0 | 0.00 | 0.00 | 0.00 | 75 | 1018.4 |
| 20260903011606 | 86 | 0 | 0.0 | 0.0 | 0.00 | 0.00 | 0.00 | 71 | 1018.3 |